Погода в Градо

Италия     45°40′41″N   13°23′21″E
темп.,
°C
ветер,
м/с
пор.,
м/с
влажн.,
%
обл.,
%
осадки,
мм/ч
давл.,
гПа
погр.,
м
21 июня, пн
пн2123:00+24всв226938 0.0 101014
02:00+22ссв22716 0.0 100937
05:00+22в22725 0.0 100924
08:00+23вюв11731 0.1 100964
11:00+24ююз12630 0.0 1010275
14:00+24ю44812 0.0 1009350
17:00+24ю33802 0.0 1009234
20:00+23юв23780 0.0 100888
22 июня, вт
вт2223:00+23ссв22750 0.0 100925
02:00+22ссв22740 0.0 100958
05:00+21всв22720 0.0 100975
08:00+23в11670 0.0 1010103
11:00+23ююз33690 0.0 1011285
14:00+24ююз33766 0.0 1011333
17:00+24ю227710 0.0 1011234
20:00+23юв23835 0.0 101188
23 июня, ср
ср2323:00+23св227644 0.0 101217
02:00+21ссв23690 0.0 101365
05:00+21всв22670 0.0 101357
08:00+23св22640 0.0 101489
11:00+26зюз11570 0.0 1015225
14:00+28зюз32540 0.0 1014374
17:00+26юз456498 0.0 1015156
20:00+25в22715 0.0 101421
24 июня, чт
чт2423:00+23ссв33700 0.0 101423
02:00+23в33700 0.0 101538
05:00+22всв22700 0.0 101518
08:00+24св22670 0.0 101560
11:00+24ююз33627 0.0 1015265
14:00+25ююз347227 0.0 1016298
17:00+25ю227269 0.0 1014205
20:00+24ююв1174100 0.0 101441
25 июня, пт
пт2523:00+24сз2274100 0.0 101533
02:00+22в23770 0.0 101440
05:00+22вюв11830 0.0 101528
08:00+22юв11790 0.0 1015272
11:00+23ю54780 0.0 1016396
14:00+23ююз43690 0.0 1015306
17:00+25зюз12550 0.0 1014299
20:00+24зюз446436 0.0 101478